Volver al catálogo

ASTROCAST-0403

ActivoComunicacionesSSO
NORAD 55111·PAYLOAD·🇨🇭 Switzerland

Lanzado Jan 3, 2023 desde Cape Canaveral Space Force Station

Loading…

Próximos Pases (próximas 24 horas)

TLE

ActualizadoSource: Space-Track

Época: Sep 14, 2026, 05:23 UTC

1 55111U 23001DG  26257.22497482  .00020717  00000-0  61263-3 0  9997
2 55111  97.5610 353.3903 0004107  24.5076 335.6361 15.34942467158203

Sigue ASTROCAST-0403 en tiempo real con AllMySat

Download on the App Store